Meteo Giornale » Osservazioni meteo Stati Uniti (USA) » Boulder
ore: 13:55 - Osservazioni Meteo Boulder
Lat. 40° 2' N Lon. 105° 14' W Alt. 1612 metri s.l.m.
30 °C
Nuvoloso
Temp. 24 Ore
16 °C
31 °C
Sud/Sud-Est
11.1 Km/h
Dew point 7 °C
Umidità 23 %
Visibilità 10 Km
Il sole sorge alle ore 06:29
Il sole tramonta alle ore 19:32
| Data e Ora | Cielo e Fenomeni | T °C | DP °C | Um. % | Pres. hPa | Vis. km | Vento km/h | |
|---|---|---|---|---|---|---|---|---|
| Oggi h: 13:55 | Nuvoloso | 30 | 7 | 23 | 1018 | 10 | S/SE 11.1 | |
| Oggi h: 13:35 | Nuvoloso | 31 | 7 | 22 | 1018 | 10 | S 11.1 | |
| Oggi h: 13:15 | Nuvoloso | 30 | 5 | 20 | 1018 | 10 | O/SO 13 | |
| Oggi h: 12:55 | Molto Nuvoloso | 30 | 4 | 19 | 1019 | 10 | SO 24 | |
| Oggi h: 12:35 | Molto Nuvoloso | 30 | 5 | 20 | 1019 | 10 | SO 16.7 | |
| Oggi h: 12:15 | Nuvoloso | 29 | 5 | 21 | 1019 | 10 | S/SO 27.8 | |
| Oggi h: 11:55 | Sereno | 28 | 5 | 23 | 1020 | 10 | O/SO 18.5 | |
| Oggi h: 11:35 | Sereno | 27 | 5 | 24 | 1020 | 10 | O/SO 18.5 | |
| Oggi h: 11:15 | Sereno | 27 | 5 | 24 | 1020 | 10 | SO 24 | |
| Oggi h: 10:55 | Sereno | 26 | 10 | 36 | 1020 | 10 | N 5.5 | |
| Oggi h: 10:35 | Sereno | 26 | 7 | 29 | 1020 | 10 | N/NE 7.4 | |
| Oggi h: 10:15 | Sereno | 25 | 8 | 33 | 1020 | 10 | N 5.5 | |
| Oggi h: 09:55 | Sereno | 21 | 15 | 68 | 1020 | 10 | N 0 | |
| Oggi h: 09:35 | Sereno | 20 | 15 | 72 | 1020 | 10 | N 0 | |
| Oggi h: 09:15 | Sereno | 18 | 15 | 82 | 1021 | 10 | N 7.4 | |
| Oggi h: 08:55 | Sereno | 20 | 14 | 68 | 1020 | 10 | N 0 | |
| Oggi h: 08:35 | Sereno | 20 | 10 | 52 | 1020 | 10 | N 0 | |
| Oggi h: 08:15 | Sereno | 20 | 11 | 56 | 1020 | 10 | S/SO 11.1 | |
| Oggi h: 07:55 | Sereno | 18 | 13 | 72 | 1020 | 10 | N 5.5 | |
| Oggi h: 07:35 | Sereno | 17 | 13 | 77 | 1020 | 10 | N 0 | |
| Oggi h: 07:15 | Sereno | 17 | 12 | 72 | 1020 | 10 | N 0 | |
| Oggi h: 06:55 | Sereno | 17 | 13 | 77 | 1020 | 10 | N 0 | |
| Oggi h: 06:35 | Sereno | 17 | 13 | 77 | 1019 | 10 | N 0 | |
| Oggi h: 06:15 | Sereno | 17 | 13 | 77 | 1019 | 10 | N 0 | |
| Oggi h: 05:55 | Sereno | 16 | 13 | 82 | 1019 | 10 | N 0 | |
| Oggi h: 05:35 | Sereno | 17 | 12 | 72 | 1019 | 10 | N 0 | |
| Oggi h: 05:15 | Sereno | 17 | 13 | 77 | 1019 | 10 | N 0 | |
| Oggi h: 04:55 | Sereno | 17 | 14 | 82 | 1019 | 10 | N 5.5 | |
| Oggi h: 04:35 | Sereno | 17 | 13 | 77 | 1020 | 10 | N 5.5 | |
| Oggi h: 04:15 | Nuvoloso | 18 | 13 | 72 | 1020 | 10 | N 5.5 | |
| Oggi h: 03:55 | Molto Nuvoloso | 18 | 13 | 72 | 1020 | 10 | SO 7.4 | |
| Oggi h: 03:35 | Coperto | 18 | 13 | 72 | 1020 | 10 | S 7.4 | |
| Oggi h: 03:15 | Coperto | 18 | 14 | 77 | 1020 | 10 | S/SO 7.4 | |
| Oggi h: 02:55 | Molto Nuvoloso | 18 | 15 | 82 | 1020 | 10 | N 5.5 | |
| Oggi h: 02:35 | Nuvoloso | 18 | 15 | 82 | 1020 | 10 | N 5.5 | |
| Oggi h: 02:15 | Molto Nuvoloso | 17 | 15 | 88 | 1021 | 10 | N 5.5 | |
| Oggi h: 01:55 | Coperto | 17 | 15 | 88 | 1021 | 10 | N 0 | |
| Oggi h: 01:35 | Coperto | 18 | 15 | 82 | 1021 | 10 | N 0 | |
| Oggi h: 01:15 | Coperto | 18 | 15 | 82 | 1022 | 10 | N 5.5 | |
| Oggi h: 00:55 | Coperto | 18 | 13 | 72 | 1021 | 10 | N 5.5 | |
| Oggi h: 00:35 | Pioggia | 19 | 13 | 68 | 1021 | 10 | SO 11.1 | |
| Oggi h: 00:15 | Coperto | 20 | 12 | 59 | 1022 | 10 | SO 14.8 | |
| Ieri h: 23:55 | Coperto | 19 | 14 | 72 | 1021 | 10 | N 0 | |
| Ieri h: 23:35 | Nuvoloso | 19 | 15 | 77 | 1021 | 10 | N 0 | |
| Ieri h: 23:15 | Nuvoloso | 18 | 15 | 82 | 1021 | 10 | N 5.5 | |
| Ieri h: 22:55 | Molto Nuvoloso | 18 | 16 | 88 | 1021 | 10 | N 0 | |
| Ieri h: 22:35 | Sereno | 18 | 15 | 82 | 1021 | 10 | SO 11.1 | |
| Ieri h: 22:15 | Nuvoloso | 18 | 15 | 82 | 1021 | 10 | N 0 | |
| Ieri h: 21:55 | Molto Nuvoloso | 18 | 16 | 88 | 1021 | 10 | N/NE 7.4 | |
| Ieri h: 21:35 | Coperto | 18 | 16 | 88 | 1022 | 10 | N 0 | |
| Ieri h: 21:15 | Coperto | 19 | 15 | 77 | 1023 | 10 | N 5.5 | |
| Ieri h: 20:55 | Temporale | 18 | 15 | 82 | 1022 | 10 | N 5.5 | |
| Ieri h: 20:35 | Temporale | 22 | 10 | 46 | 1022 | 10 | S/SO 22.2 | |
| Ieri h: 20:15 | Coperto | 22 | 10 | 46 | 1020 | 10 | O/SO 11.1 | |
| Ieri h: 19:55 | Molto Nuvoloso | 22 | 10 | 46 | 1020 | 10 | O 11.1 | |
| Ieri h: 19:35 | Nuvoloso | 22 | 11 | 49 | 1020 | 10 | O/SO 11.1 | |
| Ieri h: 19:15 | Nuvoloso | 22 | 11 | 49 | 1020 | 10 | O 16.7 | |
| Ieri h: 18:55 | Pioviggine | 21 | 11 | 52 | 1020 | 10 | O/SO 29.6 | |
| Ieri h: 18:35 | Pioggia | 22 | 10 | 46 | 1020 | 10 | O/SO 29.6 | |
| Ieri h: 18:15 | Coperto | 26 | 6 | 27 | 1020 | 10 | O 16.7 | |
| Ieri h: 17:55 | Coperto | 26 | 6 | 27 | 1019 | 10 | O/NO 14.8 | |
| Ieri h: 17:35 | Molto Nuvoloso | 27 | 7 | 28 | 1019 | 10 | NO 16.7 | |
| Ieri h: 17:15 | Nuvoloso | 28 | 6 | 24 | 1019 | 10 | N 0 | |
| Ieri h: 16:55 | Molto Nuvoloso | 28 | 6 | 24 | 1019 | 10 | N 0 | |
| Ieri h: 16:35 | Sereno | 29 | 6 | 23 | 1019 | 10 | N 0 | |
| Ieri h: 16:15 | Sereno | 28 | 6 | 24 | 1020 | 10 | N 5.5 | |
| Ieri h: 15:55 | Temporale nelle vicinanze | 28 | 6 | 24 | 1020 | 10 | N 5.5 | |
| Ieri h: 15:35 | Sereno | 28 | 6 | 24 | 1020 | 10 | E/NE 9.3 | |
| Ieri h: 15:15 | Sereno | 28 | 6 | 24 | 1020 | 10 | E/NE 7.4 | |
| Ieri h: 14:55 | Sereno | 28 | 6 | 24 | 1020 | 10 | E/NE 9.3 | |
| Ieri h: 14:35 | Sereno | 28 | 6 | 24 | 1021 | 10 | E 11.1 | |



